Skip Page Navigation
NASA JPL Caltech
NASA Logo - Jet Propulsion Laboratory + View the NASA Portal
+ Center for Near-Earth Object Studies
JPL Home Earth Solar System Stars & Galaxies Technology
JPL Solar System Dynamics
BODIES ORBITS EPHEMERIDES TOOLS PHYSICAL DATA DISCOVERY FAQ SITE MAP
IMPORTANT: The SSD Announcement email list is now available. Major changes are coming in the near future, including possible hostname and/or URL changes. To be notified of such changes, subscribe to this email list.

Please visit this page for more details.


JPL Small-Body Database Browser
Search: [ help ]  
266527 (2008 FE26)
Classification: Main-belt Asteroid          SPK-ID: 2266527
Ephemeris | Orbit Diagram | Orbital Elements | Mission Design | Physical Parameters | Discovery Circumstances | Close-Approach Data ]

[ show orbit diagram ]
Orbital Elements at Epoch 2458600.5 (2019-Apr-27.0) TDB
Reference: JPL 8 (heliocentric ecliptic J2000)
 Element Value Uncertainty (1-sigma)   Units 
e .09445495776074159 6.2722e-08  
a 2.192466860240582 1.7626e-08 au
q 1.985377495564732 1.4715e-07 au
i 2.410337441714257 6.7041e-06 deg
node 167.3801541342765 0.00015506 deg
peri 310.9025859435226 0.00016493 deg
M 209.0972393876938 5.4646e-05 deg
tp 2459097.541518409409
(2020-Sep-05.04151841)
0.00018278 TDB
period 1185.763241847512
3.25
1.4299e-05
3.915e-08
d
yr
n .303601922622506 3.661e-09 deg/d
Q 2.399556224916432 1.929e-08 au
  Orbit Determination Parameters
   # obs. used (total)      161  
   data-arc span      5844 days (16.00 yr)  
   first obs. used      2003-10-22  
   last obs. used      2019-10-22  
   planetary ephem.      DE431  
   SB-pert. ephem.      SB431-N16  
   condition code      0  
   norm. resid. RMS      .64723  
   source      ORB  
   producer      Otto Matic  
   solution date      2019-Nov-08 04:05:07  

Additional Information
 Earth MOID = 1.00273 au 
 Jupiter MOID = 2.65365 au 
 T_jup = 3.665 
[ show covariance matrix ]

Ephemeris | Orbit Diagram | Orbital Elements | Mission Design | Physical Parameters | Discovery Circumstances | Close-Approach Data ]

Physical Parameter Table
Parameter Symbol Value Units Sigma Reference Notes
absolute magnitude H 18.7   n/a MPO396876  

266527 (2008 FE26)          Discovered 2008-Mar-27 by Mt. Lemmon Survey at Mount Lemmon
Reference: 20110218/Numbers.arcLast Updated: 2011-02-22

[ show close-approach data ]
Alternate Designations
 2008 FE26 = 2005 JT73 = 2006 UG149 
Ephemeris | Orbit Diagram | Orbital Elements | Mission Design | Physical Parameters | Discovery Circumstances | Close-Approach Data ]
ABOUT SSD CREDITS/AWARDS PRIVACY/COPYRIGHT GLOSSARY LINKS
FirstGov 2019-Dec-14 08:31 UT
(server date/time)  
NASA Home Page
Site Manager:   Ryan S. Park
Webmaster  Alan B. Chamberlin